Location: Mountain View
(37.3861°N, 122.0839°W)
Time: 20:29:17
(UTC-07:00)

Envisat - Pass Details

Date: 15 May 2026
Orbit: 761 x 763 km, 98.4° (Epoch: 9 June)

Event Time Altitude Azimuth Distance (km) Brightness Sun altitude
Rises 03:35:53 0° 14° (NNE) 3,229 7.3 -23.4°
Reaches altitude 10° 03:38:12 10° 16° (NNE) 2,299 6.4 -23.1°
Maximum altitude 03:43:16 75° 103° (ESE) 788 3.0 -22.4°
Enters shadow 03:44:52 44° 177° (S) 1,044 3.3 -22.2°
